| time (UTC) | temp F | wind direction | speed MPH | gust MPH | rain 1hr in | rain 24hr in | rain mn in | humidity % | barometer mb |
| 20260506062517 | 63 | 0.0 | 2.0 | 0.00 | 0.00 | 0.00 | 76 | 1010.3 | |
| 20260506062016 | 63 | 180 | 1.0 | 4.0 | 0.00 | 0.00 | 0.00 | 76 | 1010.3 |
| 20260506061516 | 63 | 203 | 1.0 | 4.0 | 0.00 | 0.00 | 0.00 | 75 | 1010.2 |
| 20260506061016 | 63 | 158 | 1.0 | 5.0 | 0.00 | 0.00 | 0.00 | 75 | 1010.2 |
| 20260506060516 | 63 | 0.0 | 2.0 | 0.00 | 0.00 | 0.00 | 74 | 1010.2 | |
| 20260506051016 | 65 | 180 | 2.0 | 9.0 | 0.00 | 0.00 | 0.00 | 71 | 1010.7 |
| 20260506050537 | 66 | 203 | 2.0 | 7.0 | 0.00 | 0.00 | 0.00 | 71 | 1010.7 |
| 20260506045016 | 66 | 180 | 2.0 | 9.0 | 0.00 | 0.00 | 0.00 | 70 | 1010.7 |
| 20260506044516 | 66 | 225 | 3.0 | 9.0 | 0.00 | 0.00 | 0.00 | 70 | 1010.8 |
| 20260506044016 | 66 | 225 | 4.0 | 13.0 | 0.00 | 0.00 | 0.00 | 69 | 1010.8 |
| 20260506043516 | 66 | 158 | 2.0 | 7.0 | 0.00 | 0.00 | 0.00 | 69 | 1010.8 |
| 20260506043016 | 67 | 180 | 2.0 | 7.0 | 0.00 | 0.00 | 0.00 | 68 | 1010.7 |
| 20260506042516 | 67 | 203 | 4.0 | 13.0 | 0.00 | 0.00 | 0.00 | 68 | 1010.7 |
| 20260506042017 | 67 | 225 | 4.0 | 9.0 | 0.00 | 0.00 | 0.00 | 68 | 1010.7 |
| 20260506041516 | 67 | 225 | 3.0 | 9.0 | 0.00 | 0.00 | 0.00 | 67 | 1010.7 |
| 20260506041016 | 67 | 225 | 4.0 | 13.0 | 0.00 | 0.00 | 0.00 | 67 | 1010.6 |
| 20260506040516 | 67 | 225 | 4.0 | 11.0 | 0.00 | 0.00 | 0.00 | 67 | 1010.7 |
| 20260506040016 | 67 | 225 | 5.0 | 17.0 | 0.00 | 0.00 | 0.00 | 67 | 1010.6 |
| 20260506035516 | 67 | 225 | 5.0 | 15.0 | 0.00 | 0.00 | 0.00 | 67 | 1010.6 |
| 20260506035017 | 67 | 225 | 6.0 | 12.0 | 0.00 | 0.00 | 0.00 | 66 | 1010.7 |
| 20260506034556 | 68 | 225 | 7.0 | 13.0 | 0.00 | 0.00 | 0.00 | 66 | 1010.8 |
| 20260506034016 | 68 | 225 | 7.0 | 13.0 | 0.00 | 0.00 | 0.00 | 66 | 1010.8 |
| 20260506033516 | 68 | 225 | 6.0 | 12.0 | 0.00 | 0.00 | 0.00 | 65 | 1010.6 |
| 20260506033016 | 68 | 225 | 7.0 | 16.0 | 0.00 | 0.00 | 0.00 | 65 | 1010.6 |
| 20260506032516 | 68 | 225 | 8.0 | 17.0 | 0.00 | 0.00 | 0.00 | 64 | 1010.7 |
| 20260506032016 | 68 | 225 | 7.0 | 17.0 | 0.00 | 0.00 | 0.00 | 64 | 1010.6 |
| 20260506031516 | 68 | 225 | 6.0 | 13.0 | 0.00 | 0.00 | 0.00 | 64 | 1010.5 |
| 20260506031017 | 68 | 225 | 8.0 | 21.0 | 0.00 | 0.00 | 0.00 | 64 | 1010.5 |
| 20260506030557 | 68 | 225 | 3.0 | 10.0 | 0.00 | 0.00 | 0.00 | 64 | 1010.5 |
| 20260506030017 | 68 | 225 | 4.0 | 10.0 | 0.00 | 0.00 | 0.00 | 64 | 1010.6 |
| 20260506025536 | 68 | 225 | 6.0 | 12.0 | 0.00 | 0.00 | 0.00 | 64 | 1010.5 |
| 20260506025016 | 67 | 248 | 6.0 | 14.0 | 0.00 | 0.00 | 0.00 | 64 | 1010.5 |
| 20260506024516 | 67 | 225 | 4.0 | 12.0 | 0.00 | 0.00 | 0.00 | 64 | 1010.5 |
| 20260506024017 | 67 | 225 | 4.0 | 11.0 | 0.00 | 0.00 | 0.00 | 64 | 1010.5 |
| 20260506023516 | 67 | 225 | 4.0 | 13.0 | 0.00 | 0.00 | 0.00 | 65 | 1010.5 |
| 20260506023016 | 67 | 225 | 4.0 | 11.0 | 0.00 | 0.00 | 0.00 | 65 | 1010.6 |
| 20260506022517 | 67 | 203 | 3.0 | 9.0 | 0.00 | 0.00 | 0.00 | 65 | 1010.6 |
| 20260506022017 | 67 | 225 | 4.0 | 10.0 | 0.00 | 0.00 | 0.00 | 65 | 1010.6 |
| 20260506021516 | 67 | 203 | 5.0 | 12.0 | 0.00 | 0.00 | 0.00 | 65 | 1010.6 |
| 20260506021036 | 67 | 203 | 4.0 | 12.0 | 0.00 | 0.00 | 0.00 | 65 | 1010.5 |
| 20260506020558 | 67 | 225 | 2.0 | 6.0 | 0.00 | 0.00 | 0.00 | 65 | 1010.5 |
| 20260506020017 | 67 | 180 | 2.0 | 7.0 | 0.00 | 0.00 | 0.00 | 64 | 1010.5 |
| 20260506015536 | 68 | 203 | 2.0 | 8.0 | 0.00 | 0.00 | 0.00 | 64 | 1010.5 |
| 20260506015016 | 68 | 225 | 5.0 | 12.0 | 0.00 | 0.00 | 0.00 | 64 | 1010.5 |
| 20260506014516 | 67 | 180 | 4.0 | 10.0 | 0.00 | 0.00 | 0.00 | 64 | 1010.6 |
| 20260506014016 | 67 | 203 | 4.0 | 15.0 | 0.00 | 0.00 | 0.00 | 64 | 1010.4 |
| 20260506013517 | 67 | 225 | 4.0 | 12.0 | 0.00 | 0.00 | 0.00 | 64 | 1010.4 |
| 20260506013016 | 67 | 203 | 4.0 | 10.0 | 0.00 | 0.00 | 0.00 | 63 | 1010.4 |
| 20260506012517 | 68 | 225 | 3.0 | 10.0 | 0.00 | 0.00 | 0.00 | 63 | 1010.3 |
| 20260506012016 | 68 | 203 | 2.0 | 7.0 | 0.00 | 0.00 | 0.00 | 62 | 1010.3 |
| 20260506011516 | 68 | 203 | 1.0 | 4.0 | 0.00 | 0.00 | 0.00 | 62 | 1010.3 |
| 20260506011016 | 68 | 225 | 2.0 | 8.0 | 0.00 | 0.00 | 0.00 | 62 | 1010.2 |
| 20260506010516 | 68 | 225 | 2.0 | 8.0 | 0.00 | 0.00 | 0.00 | 61 | 1010.1 |
| 20260506010016 | 69 | 225 | 2.0 | 6.0 | 0.00 | 0.00 | 0.00 | 61 | 1010.1 |
| 20260506005516 | 69 | 203 | 3.0 | 8.0 | 0.00 | 0.00 | 0.00 | 60 | 1010.0 |
| 20260506005016 | 69 | 225 | 2.0 | 9.0 | 0.00 | 0.00 | 0.00 | 60 | 1009.9 |
| 20260506004516 | 69 | 203 | 3.0 | 7.0 | 0.00 | 0.00 | 0.00 | 60 | 1009.9 |
| 20260506004037 | 69 | 203 | 3.0 | 8.0 | 0.00 | 0.00 | 0.00 | 60 | 1009.8 |
| 20260506003516 | 69 | 203 | 4.0 | 10.0 | 0.00 | 0.00 | 0.00 | 60 | 1009.8 |
| 20260506003017 | 69 | 225 | 2.0 | 7.0 | 0.00 | 0.00 | 0.00 | 60 | 1009.7 |
| 20260506002516 | 69 | 225 | 2.0 | 7.0 | 0.00 | 0.00 | 0.00 | 60 | 1009.5 |
| 20260506002016 | 69 | 225 | 1.0 | 4.0 | 0.00 | 0.00 | 0.00 | 60 | 1009.5 |
| 20260506001516 | 69 | 203 | 3.0 | 9.0 | 0.00 | 0.00 | 0.00 | 59 | 1009.5 |
| 20260506001016 | 69 | 203 | 1.0 | 9.0 | 0.00 | 0.00 | 0.00 | 60 | 1009.5 |
| 20260506000517 | 69 | 180 | 1.0 | 7.0 | 0.00 | 0.00 | 0.00 | 60 | 1009.4 |
| 20260506000017 | 69 | 158 | 1.0 | 5.0 | 0.00 | 0.00 | 0.00 | 60 | 1009.4 |
| 20260505235516 | 69 | 180 | 1.0 | 4.0 | 0.00 | 0.00 | 0.00 | 60 | 1009.3 |
| 20260505235016 | 69 | 203 | 2.0 | 7.0 | 0.00 | 0.00 | 0.00 | 59 | 1009.3 |
| 20260505234517 | 70 | 225 | 2.0 | 9.0 | 0.00 | 0.00 | 0.00 | 58 | 1009.1 |
| 20260505234016 | 70 | 225 | 3.0 | 8.0 | 0.00 | 0.00 | 0.00 | 57 | 1009.1 |
| 20260505233538 | 70 | 225 | 3.0 | 8.0 | 0.00 | 0.00 | 0.00 | 58 | 1009.0 |
| 20260505233016 | 70 | 203 | 2.0 | 7.0 | 0.00 | 0.00 | 0.00 | 58 | 1008.9 |
| 20260505232536 | 70 | 225 | 2.0 | 4.0 | 0.00 | 0.00 | 0.00 | 58 | 1008.7 |
| 20260505232016 | 70 | 225 | 3.0 | 7.0 | 0.00 | 0.00 | 0.00 | 59 | 1008.6 |
| 20260505231636 | 70 | 203 | 3.0 | 7.0 | 0.00 | 0.00 | 0.00 | 59 | 1008.7 |
| 20260505231017 | 70 | 248 | 2.0 | 5.0 | 0.00 | 0.00 | 0.00 | 58 | 1008.6 |
| 20260505230515 | 71 | 248 | 3.0 | 7.0 | 0.00 | 0.00 | 0.00 | 57 | 1008.5 |
| 20260505230017 | 71 | 225 | 1.0 | 3.0 | 0.00 | 0.00 | 0.00 | 57 | 1008.5 |
| 20260505225516 | 72 | 225 | 1.0 | 7.0 | 0.00 | 0.00 | 0.00 | 55 | 1008.5 |
| 20260505225016 | 73 | 158 | 1.0 | 7.0 | 0.00 | 0.00 | 0.00 | 54 | 1008.6 |
| 20260505224516 | 74 | 135 | 2.0 | 6.0 | 0.00 | 0.00 | 0.00 | 53 | 1008.5 |
| 20260505224017 | 75 | 135 | 2.0 | 6.0 | 0.00 | 0.00 | 0.00 | 51 | 1008.4 |
| 20260505223517 | 76 | 135 | 1.0 | 8.0 | 0.00 | 0.00 | 0.00 | 50 | 1008.4 |
| 20260505223036 | 77 | 158 | 3.0 | 10.0 | 0.00 | 0.00 | 0.00 | 48 | 1008.3 |
| 20260505222536 | 77 | 225 | 2.0 | 5.0 | 0.00 | 0.00 | 0.00 | 46 | 1008.3 |
| 20260505222016 | 78 | 180 | 2.0 | 7.0 | 0.00 | 0.00 | 0.00 | 44 | 1008.2 |
| 20260505221516 | 79 | 158 | 2.0 | 6.0 | 0.00 | 0.00 | 0.00 | 43 | 1008.1 |
| 20260505221016 | 80 | 225 | 6.0 | 20.0 | 0.00 | 0.00 | 0.00 | 40 | 1008.0 |
| 20260505220517 | 80 | 225 | 6.0 | 14.0 | 0.00 | 0.00 | 0.00 | 37 | 1008.0 |
| 20260505220016 | 80 | 225 | 9.0 | 19.0 | 0.00 | 0.00 | 0.00 | 37 | 1008.0 |
| 20260505215517 | 80 | 203 | 8.0 | 21.0 | 0.00 | 0.00 | 0.00 | 37 | 1007.9 |
| 20260505215016 | 80 | 225 | 7.0 | 15.0 | 0.00 | 0.00 | 0.00 | 37 | 1007.9 |
| 20260505214537 | 81 | 203 | 7.0 | 17.0 | 0.00 | 0.00 | 0.00 | 37 | 1007.9 |
| 20260505214016 | 80 | 203 | 7.0 | 18.0 | 0.00 | 0.00 | 0.00 | 37 | 1007.9 |
| 20260505213538 | 80 | 158 | 2.0 | 13.0 | 0.00 | 0.00 | 0.00 | 39 | 1008.0 |
| 20260505213037 | 81 | 158 | 3.0 | 9.0 | 0.00 | 0.00 | 0.00 | 39 | 1007.9 |
| 20260505212516 | 82 | 225 | 5.0 | 13.0 | 0.00 | 0.00 | 0.00 | 35 | 1007.9 |
| 20260505212017 | 82 | 225 | 9.0 | 20.0 | 0.00 | 0.00 | 0.00 | 34 | 1007.8 |
| 20260505211536 | 82 | 248 | 7.0 | 17.0 | 0.00 | 0.00 | 0.00 | 34 | 1007.7 |
| 20260505211017 | 83 | 225 | 6.0 | 13.0 | 0.00 | 0.00 | 0.00 | 34 | 1007.6 |
| 20260505210536 | 83 | 225 | 9.0 | 18.0 | 0.00 | 0.00 | 0.00 | 33 | 1007.6 |
| 20260505210016 | 84 | 225 | 7.0 | 17.0 | 0.00 | 0.00 | 0.00 | 32 | 1007.6 |
| 20260505205517 | 84 | 225 | 7.0 | 16.0 | 0.00 | 0.00 | 0.00 | 32 | 1007.6 |
| 20260505205017 | 83 | 225 | 10.0 | 17.0 | 0.00 | 0.00 | 0.00 | 32 | 1007.6 |
| 20260505204516 | 83 | 225 | 7.0 | 17.0 | 0.00 | 0.00 | 0.00 | 34 | 1007.6 |
| 20260505204016 | 83 | 225 | 7.0 | 14.0 | 0.00 | 0.00 | 0.00 | 34 | 1007.7 |
| 20260505203516 | 83 | 180 | 3.0 | 13.0 | 0.00 | 0.00 | 0.00 | 35 | 1007.7 |
| 20260505203037 | 84 | 225 | 5.0 | 13.0 | 0.00 | 0.00 | 0.00 | 35 | 1007.7 |
| 20260505202516 | 83 | 225 | 8.0 | 18.0 | 0.00 | 0.00 | 0.00 | 31 | 1007.6 |
| 20260505202016 | 82 | 225 | 11.0 | 21.0 | 0.00 | 0.00 | 0.00 | 32 | 1007.7 |
| 20260505201516 | 81 | 225 | 10.0 | 24.0 | 0.00 | 0.00 | 0.00 | 34 | 1007.8 |
| 20260505201017 | 80 | 225 | 2.0 | 9.0 | 0.00 | 0.00 | 0.00 | 39 | 1007.9 |
| 20260505200515 | 80 | 158 | 2.0 | 9.0 | 0.00 | 0.00 | 0.00 | 41 | 1007.9 |
| 20260505200016 | 79 | 180 | 2.0 | 8.0 | 0.00 | 0.00 | 0.00 | 44 | 1008.0 |
| 20260505195537 | 79 | 113 | 3.0 | 8.0 | 0.00 | 0.00 | 0.00 | 45 | 1008.1 |
| 20260505195016 | 79 | 135 | 1.0 | 6.0 | 0.00 | 0.00 | 0.00 | 45 | 1008.1 |
| 20260505194516 | 79 | 135 | 3.0 | 10.0 | 0.00 | 0.00 | 0.00 | 45 | 1008.2 |
| 20260505194016 | 79 | 135 | 2.0 | 7.0 | 0.00 | 0.00 | 0.00 | 46 | 1008.2 |
| 20260505193515 | 78 | 113 | 3.0 | 8.0 | 0.00 | 0.00 | 0.00 | 47 | 1008.3 |
| 20260505193015 | 78 | 135 | 2.0 | 5.0 | 0.00 | 0.00 | 0.00 | 48 | 1008.4 |
| 20260505192516 | 78 | 135 | 2.0 | 6.0 | 0.00 | 0.00 | 0.00 | 48 | 1008.6 |
| 20260505192016 | 78 | 135 | 2.0 | 5.0 | 0.00 | 0.00 | 0.00 | 48 | 1008.6 |
| 20260505191516 | 78 | 113 | 4.0 | 10.0 | 0.00 | 0.00 | 0.00 | 47 | 1008.7 |
| 20260505191035 | 78 | 135 | 3.0 | 7.0 | 0.00 | 0.00 | 0.00 | 46 | 1008.7 |
| 20260505190516 | 78 | 135 | 2.0 | 8.0 | 0.00 | 0.00 | 0.00 | 48 | 1008.9 |
| 20260505190015 | 77 | 135 | 2.0 | 7.0 | 0.00 | 0.00 | 0.00 | 49 | 1009.1 |
| 20260505185515 | 77 | 135 | 4.0 | 9.0 | 0.00 | 0.00 | 0.00 | 50 | 1009.2 |
| 20260505185017 | 76 | 135 | 4.0 | 8.0 | 0.00 | 0.00 | 0.00 | 49 | 1009.3 |
| 20260505184515 | 76 | 135 | 4.0 | 11.0 | 0.00 | 0.00 | 0.00 | 50 | 1009.3 |
| 20260505184017 | 76 | 113 | 4.0 | 9.0 | 0.00 | 0.00 | 0.00 | 49 | 1009.3 |
| 20260505183515 | 77 | 113 | 5.0 | 11.0 | 0.00 | 0.00 | 0.00 | 49 | 1009.4 |
| 20260505183016 | 77 | 113 | 4.0 | 10.0 | 0.00 | 0.00 | 0.00 | 48 | 1009.5 |
| 20260505182516 | 77 | 135 | 3.0 | 8.0 | 0.00 | 0.00 | 0.00 | 48 | 1009.6 |
| 20260505182017 | 77 | 135 | 4.0 | 9.0 | 0.00 | 0.00 | 0.00 | 49 | 1009.6 |
| 20260505181535 | 76 | 113 | 4.0 | 9.0 | 0.00 | 0.00 | 0.00 | 49 | 1009.5 |
| 20260505181057 | 76 | 113 | 4.0 | 10.0 | 0.00 | 0.00 | 0.00 | 49 | 1009.6 |
| 20260505180515 | 77 | 135 | 4.0 | 9.0 | 0.00 | 0.00 | 0.00 | 48 | 1009.7 |
| 20260505180015 | 77 | 113 | 4.0 | 10.0 | 0.00 | 0.00 | 0.00 | 47 | 1009.7 |
| 20260505175537 | 78 | 135 | 4.0 | 10.0 | 0.00 | 0.00 | 0.00 | 47 | 1009.8 |
| 20260505175017 | 78 | 135 | 5.0 | 10.0 | 0.00 | 0.00 | 0.00 | 46 | 1009.7 |
| 20260505174515 | 78 | 113 | 3.0 | 8.0 | 0.00 | 0.00 | 0.00 | 46 | 1009.7 |
| 20260505174036 | 78 | 135 | 3.0 | 8.0 | 0.00 | 0.00 | 0.00 | 46 | 1009.8 |
| 20260505173515 | 78 | 135 | 4.0 | 10.0 | 0.00 | 0.00 | 0.00 | 47 | 1009.9 |
| 20260505173015 | 78 | 113 | 5.0 | 9.0 | 0.00 | 0.00 | 0.00 | 46 | 1009.9 |
| 20260505172515 | 78 | 135 | 4.0 | 10.0 | 0.00 | 0.00 | 0.00 | 46 | 1009.9 |
| 20260505172015 | 78 | 113 | 4.0 | 9.0 | 0.00 | 0.00 | 0.00 | 46 | 1009.9 |
| 20260505171515 | 78 | 113 | 5.0 | 12.0 | 0.00 | 0.00 | 0.00 | 45 | 1010.0 |
| 20260505171015 | 79 | 113 | 5.0 | 11.0 | 0.00 | 0.00 | 0.00 | 45 | 1010.0 |
| 20260505170516 | 78 | 113 | 4.0 | 7.0 | 0.00 | 0.00 | 0.00 | 46 | 1010.0 |
| 20260505170015 | 78 | 113 | 5.0 | 10.0 | 0.00 | 0.00 | 0.00 | 45 | 1010.1 |
| 20260505165517 | 78 | 113 | 5.0 | 9.0 | 0.00 | 0.00 | 0.00 | 45 | 1010.2 |
| 20260505165016 | 79 | 113 | 5.0 | 10.0 | 0.00 | 0.00 | 0.00 | 44 | 1010.2 |
| 20260505164519 | 79 | 135 | 4.0 | 10.0 | 0.00 | 0.00 | 0.00 | 44 | 1010.3 |
| 20260505164018 | 79 | 135 | 4.0 | 9.0 | 0.00 | 0.00 | 0.00 | 44 | 1010.4 |
| 20260505163518 | 79 | 113 | 3.0 | 8.0 | 0.00 | 0.00 | 0.00 | 44 | 1010.3 |
| 20260505163057 | 79 | 135 | 3.0 | 8.0 | 0.00 | 0.00 | 0.00 | 44 | 1010.4 |
| 20260505162517 | 79 | 135 | 3.0 | 8.0 | 0.00 | 0.00 | 0.00 | 44 | 1010.4 |
| 20260505162017 | 78 | 113 | 1.0 | 8.0 | 0.00 | 0.00 | 0.00 | 46 | 1010.6 |
| 20260505161517 | 77 | 135 | 3.0 | 7.0 | 0.00 | 0.00 | 0.00 | 46 | 1010.6 |
| 20260505161017 | 77 | 135 | 4.0 | 8.0 | 0.00 | 0.00 | 0.00 | 46 | 1010.6 |
| 20260505160517 | 77 | 113 | 3.0 | 9.0 | 0.00 | 0.00 | 0.00 | 47 | 1010.8 |
| 20260505153017 | 79 | 225 | 3.0 | 9.0 | 0.00 | 0.00 | 0.00 | 44 | 1011.0 |
| 20260505152517 | 78 | 135 | 1.0 | 3.0 | 0.00 | 0.00 | 0.00 | 44 | 1010.8 |
| 20260505152017 | 78 | 225 | 2.0 | 8.0 | 0.00 | 0.00 | 0.00 | 45 | 1011.0 |
| 20260505151517 | 77 | 203 | 2.0 | 5.0 | 0.00 | 0.00 | 0.00 | 46 | 1011.1 |
| 20260505151018 | 77 | 225 | 3.0 | 8.0 | 0.00 | 0.00 | 0.00 | 47 | 1011.3 |
| 20260505150518 | 77 | 248 | 2.0 | 8.0 | 0.00 | 0.00 | 0.00 | 47 | 1011.4 |
| 20260505140518 | 73 | 225 | 3.0 | 8.0 | 0.00 | 0.00 | 0.00 | 55 | 1011.7 |
| 20260505125017 | 67 | 225 | 4.0 | 12.0 | 0.00 | 0.00 | 0.00 | 65 | 1011.5 |
| 20260505124517 | 67 | 225 | 4.0 | 8.0 | 0.00 | 0.00 | 0.00 | 65 | 1011.4 |
| 20260505124017 | 67 | 225 | 3.0 | 9.0 | 0.00 | 0.00 | 0.00 | 65 | 1011.3 |
| 20260505123517 | 67 | 225 | 3.0 | 8.0 | 0.00 | 0.00 | 0.00 | 65 | 1011.3 |
| 20260505123038 | 67 | 225 | 3.0 | 8.0 | 0.00 | 0.00 | 0.00 | 65 | 1011.3 |
| 20260505122517 | 67 | 203 | 1.0 | 5.0 | 0.00 | 0.00 | 0.00 | 65 | 1011.3 |
| 20260505122017 | 67 | 225 | 2.0 | 6.0 | 0.00 | 0.00 | 0.00 | 65 | 1011.3 |
| 20260505121517 | 67 | 225 | 2.0 | 7.0 | 0.00 | 0.00 | 0.00 | 66 | 1011.3 |
| 20260505121039 | 67 | 0.0 | 2.0 | 0.00 | 0.00 | 0.00 | 67 | 1011.3 | |
| 20260505120517 | 66 | 0.0 | 4.0 | 0.00 | 0.00 | 0.00 | 68 | 1011.2 | |
| 20260505120037 | 65 | 225 | 1.0 | 5.0 | 0.00 | 0.00 | 0.00 | 69 | 1011.2 |
| 20260505115518 | 65 | 225 | 1.0 | 4.0 | 0.00 | 0.00 | 0.00 | 69 | 1011.2 |
| 20260505115038 | 65 | 0.0 | 2.0 | 0.00 | 0.00 | 0.00 | 70 | 1011.3 | |
| 20260505114537 | 64 | 248 | 1.0 | 3.0 | 0.00 | 0.00 | 0.00 | 71 | 1011.3 |
| 20260505114017 | 64 | 0.0 | 2.0 | 0.00 | 0.00 | 0.00 | 71 | 1011.3 | |
| 20260505113537 | 63 | 225 | 1.0 | 5.0 | 0.00 | 0.00 | 0.00 | 72 | 1011.4 |
| 20260505113017 | 62 | 225 | 2.0 | 5.0 | 0.00 | 0.00 | 0.00 | 72 | 1011.4 |
| 20260505112517 | 62 | 225 | 2.0 | 4.0 | 0.00 | 0.00 | 0.00 | 72 | 1011.4 |
| 20260505112018 | 62 | 203 | 2.0 | 4.0 | 0.00 | 0.00 | 0.00 | 72 | 1011.4 |
| 20260505111517 | 62 | 225 | 2.0 | 5.0 | 0.00 | 0.00 | 0.00 | 73 | 1011.4 |
| 20260505111017 | 61 | 225 | 1.0 | 4.0 | 0.00 | 0.00 | 0.00 | 73 | 1011.3 |
| 20260505110516 | 61 | 225 | 2.0 | 4.0 | 0.00 | 0.00 | 0.00 | 73 | 1011.4 |
| 20260505102017 | 59 | 270 | 2.0 | 6.0 | 0.00 | 0.00 | 0.00 | 78 | 1011.3 |
| 20260505101517 | 59 | 248 | 1.0 | 3.0 | 0.00 | 0.00 | 0.00 | 78 | 1011.2 |
| 20260505101017 | 59 | 248 | 2.0 | 4.0 | 0.00 | 0.00 | 0.00 | 78 | 1011.0 |
| 20260505100516 | 59 | 225 | 1.0 | 5.0 | 0.00 | 0.00 | 0.00 | 78 | 1010.7 |
| 20260505100017 | 59 | 225 | 3.0 | 5.0 | 0.00 | 0.00 | 0.00 | 78 | 1010.7 |
| 20260505095537 | 59 | 225 | 3.0 | 9.0 | 0.00 | 0.00 | 0.00 | 79 | 1010.6 |
| 20260505095017 | 58 | 225 | 3.0 | 7.0 | 0.00 | 0.00 | 0.00 | 79 | 1010.5 |
| 20260505094517 | 58 | 225 | 3.0 | 7.0 | 0.00 | 0.00 | 0.00 | 80 | 1010.4 |
| 20260505094017 | 58 | 225 | 3.0 | 8.0 | 0.00 | 0.00 | 0.00 | 80 | 1010.4 |
| 20260505093518 | 57 | 225 | 2.0 | 5.0 | 0.00 | 0.00 | 0.00 | 80 | 1010.2 |
| 20260505093018 | 57 | 225 | 2.0 | 6.0 | 0.00 | 0.00 | 0.00 | 81 | 1010.2 |
| 20260505092537 | 57 | 225 | 1.0 | 4.0 | 0.00 | 0.00 | 0.00 | 81 | 1010.3 |
| 20260505092017 | 57 | 0.0 | 1.0 | 0.00 | 0.00 | 0.00 | 80 | 1010.3 | |
| 20260505091517 | 57 | 0.0 | 0.0 | 0.00 | 0.00 | 0.00 | 80 | 1010.3 | |
| 20260505091017 | 57 | 0.0 | 0.0 | 0.00 | 0.00 | 0.00 | 80 | 1010.4 | |
| 20260505090517 | 57 | 0.0 | 0.0 | 0.00 | 0.00 | 0.00 | 80 | 1010.4 | |
| 20260505090016 | 57 | 0.0 | 0.0 | 0.00 | 0.00 | 0.00 | 80 | 1010.4 | |
| 20260505085517 | 57 | 0.0 | 2.0 | 0.00 | 0.00 | 0.00 | 80 | 1010.5 | |
| 20260505085017 | 57 | 0.0 | 1.0 | 0.00 | 0.00 | 0.00 | 80 | 1010.4 | |
| 20260505084517 | 57 | 0.0 | 0.0 | 0.00 | 0.00 | 0.00 | 80 | 1010.3 | |
| 20260505084017 | 57 | 0.0 | 0.0 | 0.00 | 0.00 | 0.00 | 80 | 1010.3 | |
| 20260505083517 | 57 | 0.0 | 1.0 | 0.00 | 0.00 | 0.00 | 80 | 1010.4 | |
| 20260505083037 | 57 | 0.0 | 1.0 | 0.00 | 0.00 | 0.00 | 80 | 1010.3 | |
| 20260505082536 | 57 | 0.0 | 0.0 | 0.00 | 0.00 | 0.00 | 80 | 1010.3 | |
| 20260505082016 | 57 | 0.0 | 1.0 | 0.00 | 0.00 | 0.00 | 79 | 1010.3 | |
| 20260505081518 | 57 | 0.0 | 1.0 | 0.00 | 0.00 | 0.00 | 79 | 1010.3 | |
| 20260505081016 | 57 | 0.0 | 0.0 | 0.00 | 0.00 | 0.00 | 79 | 1010.3 | |
| 20260505080516 | 57 | 0.0 | 0.0 | 0.00 | 0.00 | 0.00 | 79 | 1010.4 | |
| 20260505080038 | 57 | 0.0 | 0.0 | 0.00 | 0.00 | 0.00 | 79 | 1010.5 | |
| 20260505075518 | 57 | 0.0 | 1.0 | 0.00 | 0.00 | 0.00 | 79 | 1010.4 | |
| 20260505075036 | 57 | 0.0 | 2.0 | 0.00 | 0.00 | 0.00 | 79 | 1010.4 | |
| 20260505074517 | 57 | 0.0 | 1.0 | 0.00 | 0.00 | 0.00 | 79 | 1010.3 | |
| 20260505074017 | 57 | 0.0 | 0.0 | 0.00 | 0.00 | 0.00 | 79 | 1010.3 | |
| 20260505073517 | 57 | 0.0 | 2.0 | 0.00 | 0.00 | 0.00 | 79 | 1010.2 | |
| 20260505073018 | 57 | 0.0 | 0.0 | 0.00 | 0.00 | 0.00 | 78 | 1010.3 | |
| 20260505072517 | 57 | 0.0 | 0.0 | 0.00 | 0.00 | 0.00 | 78 | 1010.2 | |
| 20260505072018 | 57 | 0.0 | 0.0 | 0.00 | 0.00 | 0.00 | 78 | 1010.2 | |
| 20260505071556 | 57 | 0.0 | 1.0 | 0.00 | 0.00 | 0.00 | 78 | 1010.2 | |
| 20260505071037 | 57 | 0.0 | 1.0 | 0.00 | 0.00 | 0.00 | 78 | 1010.2 | |
| 20260505070516 | 57 | 0.0 | 0.0 | 0.00 | 0.00 | 0.00 | 77 | 1010.2 | |
| 20260505070036 | 57 | 0.0 | 1.0 | 0.00 | 0.00 | 0.00 | 77 | 1010.2 |